EW1098 Weather Reports


Display with metric or nautical units.
time (UTC)temp
F
wind
direction
speed
MPH
gust
MPH
rain 1hr
in
rain 24hr
in
rain mn
in
humidity
%
barometer
mb
20260906114556 69 81 3.0 7.0 0.00 0.00 0.00 89 1019.6
20260906113055 69 53 2.0 9.0 0.00 0.00 0.00 89 1019.3
20260906111600 69 43 4.0 6.0 0.00 0.00 0.00 89 1019.1
20260906110056 70 56 2.0 6.0 0.00 0.00 0.00 88 1019.0
20260906104557 70 67 2.0 5.0 0.00 0.00 0.00 88 1018.8
20260906103054 70 42 2.0 5.0 0.00 0.00 0.00 88 1018.4
20260906101558 70 40 2.0 5.0 0.00 0.00 0.00 88 1018.4
20260906100100 71 42 3.0 6.0 0.00 0.00 0.00 88 1018.4
20260906094621 71 69 3.0 6.0 0.00 0.00 0.00 88 1018.4
20260906093104 71 49 2.0 6.0 0.00 0.00 0.00 88 1018.3
20260906091601 71 11 3.0 6.0 0.00 0.00 0.00 88 1018.3
20260906090110 71 352 3.0 8.0 0.00 0.00 0.00 88 1018.2
20260906084605 71 12 2.0 5.0 0.00 0.00 0.00 88 1018.2
20260906083101 71 26 2.0 4.0 0.00 0.00 0.00 87 1018.2
20260906081604 71 35 2.0 4.0 0.00 0.00 0.00 87 1018.1
20260906080106 71 352 1.0 4.0 0.00 0.00 0.00 87 1018.1
20260906074605 71 51 1.0 4.0 0.00 0.00 0.00 87 1018.2
20260906073100 71 50 2.0 4.0 0.00 0.00 0.00 87 1018.1
20260906071602 71 19 1.0 6.0 0.00 0.00 0.00 87 1018.3
20260906070101 71 335 3.0 4.0 0.00 0.00 0.00 88 1018.3
20260906064554 71 31 2.0 3.0 0.00 0.00 0.00 88 1018.3
20260906063057 71 65 1.0 5.0 0.00 0.00 0.00 88 1018.2
20260906061556 71 51 0.0 5.0 0.00 0.00 0.00 88 1018.3
20260906054602 71 38 2.0 4.0 0.00 0.00 0.00 89 1018.3
20260906053056 71 56 2.0 8.0 0.00 0.00 0.00 89 1018.2
20260906051558 71 66 3.0 8.0 0.00 0.00 0.00 89 1018.0
20260906050055 71 53 3.0 8.0 0.00 0.00 0.00 88 1018.0
20260906044600 71 47 2.0 11.0 0.00 0.00 0.00 88 1017.9
20260906043055 71 105 3.0 11.0 0.00 0.00 0.00 88 1017.7
20260906041553 71 86 2.0 10.0 0.00 0.00 0.00 88 1017.5
20260906034558 71 348 9.0 17.0 0.00 0.00 0.00 87 1017.4
20260906033100 71 62 7.0 14.0 0.00 0.00 0.00 87 1017.3
20260906031558 72 57 2.0 13.0 0.00 0.00 0.00 87 1017.4
20260906030056 71 80 3.0 10.0 0.00 0.00 0.00 87 1017.4
20260906024555 72 69 4.0 13.0 0.00 0.00 0.00 87 1017.3
20260906023058 72 51 8.0 15.0 0.00 0.00 0.00 86 1017.1
20260906021600 72 84 3.0 17.0 0.00 0.00 0.00 86 1017.2
20260906020104 72 337 3.0 10.0 0.00 0.00 0.00 85 1017.3
20260906014603 72 90 3.0 12.0 0.00 0.00 0.00 85 1017.5
20260906013058 72 360 3.0 15.0 0.00 0.00 0.00 85 1017.4
20260906011607 72 352 7.0 16.0 0.00 0.00 0.00 85 1017.3
20260906010057 72 300 4.0 13.0 0.00 0.00 0.00 85 1017.2
20260906004619 71 16 7.0 20.0 0.00 0.00 0.00 86 1016.9
20260906003058 72 327 6.0 15.0 0.00 0.00 0.00 86 1016.8
20260906001605 72 352 6.0 17.0 0.00 0.00 0.00 86 1016.6
20260906000100 72 65 8.0 15.0 0.00 0.00 0.00 86 1016.8
20260905234606 71 326 6.0 15.0 0.00 0.00 0.00 86 1016.8
20260905233114 72 55 8.0 21.0 0.00 0.00 0.00 86 1016.6
20260905231557 72 286 8.0 18.0 0.00 0.00 0.00 86 1016.6
20260905230059 72 360 7.0 16.0 0.00 0.00 0.00 86 1016.4
20260905224611 73 17 8.0 17.0 0.00 0.00 0.00 85 1016.4
20260905223106 74 59 4.0 14.0 0.00 0.00 0.00 84 1016.5
20260905221601 75 202 5.0 15.0 0.00 0.00 0.00 82 1016.5
20260905220056 76 45 5.0 17.0 0.00 0.00 0.00 81 1016.1
20260905214555 77 345 6.0 19.0 0.00 0.00 0.00 79 1016.0
20260905213101 78 15 4.0 18.0 0.00 0.00 0.00 78 1015.8
20260905211557 78 50 4.0 16.0 0.00 0.00 0.00 77 1015.8
20260905204602 79 46 5.0 11.0 0.00 0.00 0.00 74 1015.8
20260905203059 79 338 6.0 13.0 0.00 0.00 0.00 75 1015.8
20260905201607 77 12 4.0 14.0 0.00 0.00 0.00 78 1015.9
20260905200100 77 244 7.0 15.0 0.00 0.00 0.00 78 1016.1
20260905194604 77 10 5.0 12.0 0.00 0.00 0.00 78 1016.1
20260905193100 77 17 8.0 15.0 0.00 0.00 0.00 78 1016.2
20260905191557 78 321 3.0 10.0 0.00 0.00 0.00 78 1016.3
20260905190112 77 51 6.0 16.0 0.00 0.00 0.00 79 1016.4
20260905184621 77 331 5.0 13.0 0.00 0.00 0.00 79 1016.5
20260905183057 77 360 5.0 13.0 0.00 0.00 0.00 80 1016.5
20260905181555 77 360 6.0 14.0 0.00 0.00 0.00 79 1016.5
20260905180059 77 280 9.0 13.0 0.00 0.00 0.00 79 1016.4
20260905174600 77 22 6.0 14.0 0.00 0.00 0.00 80 1016.4
20260905173054 76 86 7.0 14.0 0.00 0.00 0.00 81 1016.3
20260905171553 77 29 7.0 16.0 0.00 0.00 0.00 80 1016.4
20260905164604 77 336 6.0 15.0 0.00 0.00 0.00 81 1016.5
20260905163106 77 54 4.0 11.0 0.00 0.00 0.00 80 1016.5
20260905161558 77 352 6.0 12.0 0.00 0.00 0.00 81 1016.5
20260905160110 77 55 4.0 12.0 0.00 0.00 0.00 84 1016.3
20260905154606 76 13 7.0 15.0 0.00 0.00 0.00 84 1016.3
20260905153102 76 55 5.0 16.0 0.00 0.00 0.00 83 1015.9
20260905151601 77 33 7.0 16.0 0.00 0.00 0.00 82 1015.8
20260905144555 77 22 2.0 9.0 0.00 0.00 0.00 84 1015.6
20260905143103 76 26 5.0 12.0 0.00 0.00 0.00 86 1015.6
20260905141619 75 49 6.0 16.0 0.00 0.00 0.00 87 1015.5
20260905140056 76 22 4.0 11.0 0.00 0.00 0.00 87 1015.5
20260905134555 76 69 6.0 12.0 0.00 0.00 0.00 87 1015.4
20260905133055 75 53 5.0 13.0 0.00 0.00 0.00 89 1015.7
20260905131629 74 24 5.0 9.0 0.00 0.00 0.00 92 1015.5
20260905130114 73 325 4.0 9.0 0.00 0.00 0.00 93 1015.4
20260905124558 73 62 3.0 8.0 0.00 0.00 0.00 93 1015.1
20260905123100 73 21 2.0 7.0 0.00 0.00 0.00 93 1015.0
20260905121600 72 306 2.0 6.0 0.00 0.00 0.00 93 1014.9
20260905120105 72 22 4.0 8.0 0.00 0.00 0.00 93 1014.8